Biblioteca

Música » Lana Del Rey »

Diet Mountain Dew ThalisJ marcou esta faixa como favorita

34 execuções | Ir para página da faixa

De Terça 24 de janeiro de 2012 a Terça 24 de abril de 2012 Todo o tempo

Faixas (34)
Faixa Álbum Duração Data
Diet Mountain Dew 3:43 Abr 21 2012, 23h57
Diet Mountain Dew 3:43 Abr 18 2012, 18h26
Diet Mountain Dew 3:43 Abr 14 2012, 1h00
Diet Mountain Dew 3:43 Abr 11 2012, 4h48
Diet Mountain Dew 3:43 Abr 7 2012, 17h40
Diet Mountain Dew 3:43 Mar 31 2012, 18h14
Diet Mountain Dew 3:43 Mar 31 2012, 0h30
Diet Mountain Dew 3:43 Mar 25 2012, 5h07
Diet Mountain Dew 3:43 Mar 23 2012, 5h02
Diet Mountain Dew 3:43 Mar 18 2012, 20h04
Diet Mountain Dew 3:43 Mar 17 2012, 22h18
Diet Mountain Dew 3:43 Mar 13 2012, 0h28
Diet Mountain Dew 3:43 Mar 11 2012, 21h30
Diet Mountain Dew 3:43 Mar 4 2012, 18h00
Diet Mountain Dew 3:43 Mar 3 2012, 21h15
Diet Mountain Dew 3:43 Fev 26 2012, 23h46
Diet Mountain Dew 3:43 Fev 25 2012, 22h04
Diet Mountain Dew 3:43 Fev 21 2012, 17h35
Diet Mountain Dew 3:43 Fev 21 2012, 4h40
Diet Mountain Dew 3:43 Fev 20 2012, 19h21
Diet Mountain Dew 3:43 Fev 19 2012, 21h54
Diet Mountain Dew 3:43 Fev 19 2012, 17h54
Diet Mountain Dew 3:43 Fev 16 2012, 0h52
Diet Mountain Dew 3:43 Fev 12 2012, 17h48
Diet Mountain Dew 3:43 Fev 11 2012, 20h54
Diet Mountain Dew 3:43 Fev 11 2012, 5h14
Diet Mountain Dew 3:43 Fev 10 2012, 22h19
Diet Mountain Dew 3:43 Fev 8 2012, 0h29
Diet Mountain Dew 3:43 Fev 4 2012, 15h19
Diet Mountain Dew 3:43 Jan 29 2012, 17h15
Diet Mountain Dew 3:43 Jan 29 2012, 5h00
Diet Mountain Dew 3:43 Jan 28 2012, 18h04
Diet Mountain Dew 3:43 Jan 27 2012, 0h30
Diet Mountain Dew 3:43 Jan 25 2012, 0h44